Content
SEND FEEDBACK

Daily
Averages
Monthly
Summary
Canada

VANCOUVER, BRITISH COLUMBIA


Home > North America > Canada > British Columbia
Elevation: 7 feet     Latitude: 49 11N     Longitude: 123 10W

WEATHER
 
SELECT A DAY
Number of Records: 249,253;   Date Range: 5/15/97 - 7/23/14
 
SHARE

PRINT THIS DATA

[ ← Previous Day ]
WEATHER ALMANAC - JUNE 15, 2013
[ Next Day → ]
[ °C ]   °F
Weather ElementAverageHighLow
Temperature57.8 °F64.4 °F (3:15 pm)48.2 °F (12:55 am)
Dewpoint51.9 °F55.4 °F (12:15 pm)48.2 °F (12:35 am)
Humidity81.3 %100 % (12:55 am)64 % (7:15 pm)
Barometer29.98 in30.07 in (12:35 am)29.93 in (5:35 pm)
Wind Speed3.1 mph8.1 mph (2:15 pm)
Weather ElementAverage
Visibility9.8 mi
Wind DirectionSSE (143.5 °)

Weather ElementTotal
Precipitation---
Heating Degree Days8.7 (Base 65)
Growing Degree Days6.3 (Base 50)
Averaged from 71 records on June 15, 2013
WEATHER CONDITIONS BREAKOUT
WIND DIRECTION BREAKOUT
WEATHER BY HOUR - JUNE 15, 2013
[ °C ]   °F
Local TimeTemperatureDewpointHumidityBarometerVisibilityWind DirectionWind SpeedGust SpeedPrecipitationEventsConditions
12:35 AM50.0 °F48.2 °F94 %30.07 in10.0 miCalmClear
12:55 AM48.2 °F48.2 °F100 %30.06 in10.0 miCalmClear
1:15 AM48.2 °F48.2 °F100 %30.05 in10.0 miCalmClear
1:35 AM48.2 °F48.2 °F100 %30.05 in10.0 miCalmClear
1:55 AM48.2 °F48.2 °F100 %30.04 in10.0 miCalmClear
2:15 AM48.2 °F48.2 °F100 %30.04 in10.0 miCalmClear
2:35 AM48.2 °F48.2 °F100 %30.03 in10.0 miCalmClear
2:55 AM50.0 °F48.2 °F94 %30.03 in10.0 miCalmClear
3:15 AM53.6 °F50.0 °F88 %30.03 in10.0 miCalmClear
3:35 AM55.4 °F50.0 °F82 %30.02 in10.0 miNE (50°)5.8 mphClear
3:55 AM55.4 °F50.0 °F82 %30.02 in10.0 miCalmClear
4:15 AM53.6 °F50.0 °F88 %30.01 in10.0 miNNE (30°)3.5 mphClear
4:35 AM53.6 °F50.0 °F88 %30.01 in10.0 miCalmClear
4:55 AM53.6 °F50.0 °F88 %30.01 in10.0 miCalmClear
5:15 AM53.6 °F48.2 °F82 %30.01 in10.0 miNNE (20°)4.6 mphClear
5:35 AM53.6 °F48.2 °F82 %30.01 in10.0 miCalmClear
5:55 AM53.6 °F48.2 °F82 %30.01 in10.0 miNorth (360°)4.6 mphClear
6:15 AM53.6 °F50.0 °F88 %30.01 in10.0 miNorth (350°)4.6 mphClear
6:35 AM53.6 °F48.2 °F82 %30.01 in10.0 miNorth (360°)3.5 mphClear
6:55 AM55.4 °F48.2 °F77 %30.00 in10.0 miNNE (30°)5.8 mphClear
7:15 AM55.4 °F48.2 °F77 %30.00 in10.0 miNE (40°)4.6 mphClear
7:35 AM55.4 °F48.2 °F77 %30.00 in10.0 miNE (40°)5.8 mphClear
7:55 AM55.4 °F48.2 °F77 %30.00 in10.0 miNNE (30°)3.5 mphClear
8:15 AM55.4 °F48.2 °F77 %30.00 in10.0 miNorth (360°)5.8 mphClear
8:35 AM55.4 °F50.0 °F82 %30.00 in10.0 miNorth (360°)3.5 mphClear
8:55 AM55.4 °F50.0 °F82 %30.00 in10.0 miNNW (340°)5.8 mphClear
9:15 AM57.2 °F50.0 °F77 %30.00 in10.0 miNNW (330°)6.9 mphClear
9:35 AM57.2 °F50.0 °F77 %30.00 in10.0 miNNW (330°)6.9 mphClear
9:55 AM57.2 °F50.0 °F77 %30.00 in10.0 miNNW (330°)6.9 mphClear
10:15 AM57.2 °F51.8 °F82 %29.99 in10.0 miNorth (350°)5.8 mphClear
10:35 AM57.2 °F53.6 °F88 %30.00 in10.0 miNorth (350°)5.8 mphClear
10:55 AM57.2 °F53.6 °F88 %29.99 in9.0 miNNW (330°)6.9 mphClear
11:15 AM59.0 °F53.6 °F82 %29.99 in10.0 miNorth (350°)5.8 mphClear
11:35 AM59.0 °F53.6 °F82 %29.99 in10.0 miNorth (360°)5.8 mphClear
11:55 AM59.0 °F53.6 °F82 %29.98 in9.0 miNNW (340°)5.8 mphClear
12:15 PM59.0 °F55.4 °F88 %29.99 in10.0 miNNW (330°)5.8 mphClear
12:35 PM59.0 °F55.4 °F88 %29.98 in9.0 miNNW (340°)6.9 mphClear
12:55 PM59.0 °F55.4 °F88 %29.98 in10.0 miNNW (330°)6.9 mphClear
1:15 PM59.0 °F55.4 °F88 %29.98 in9.0 miNorth (360°)6.9 mphClear
1:35 PM59.0 °F53.6 °F82 %29.97 in9.0 miNorth (350°)6.9 mphClear
1:55 PM60.8 °F55.4 °F82 %29.97 in10.0 miNNW (330°)6.9 mphClear
2:15 PM62.6 °F55.4 °F77 %29.97 in10.0 miNNW (330°)8.1 mphClear
2:35 PM62.6 °F55.4 °F77 %29.96 in10.0 miNNW (340°)8.1 mphClear
2:55 PM62.6 °F53.6 °F72 %29.96 in9.0 miNNW (330°)4.6 mphClear
3:15 PM64.4 °F53.6 °F68 %29.95 in10.0 miNNW (340°)5.8 mphClear
3:35 PM62.6 °F53.6 °F72 %29.95 in10.0 miCalmClear
3:55 PM62.6 °F53.6 °F72 %29.94 in10.0 miNorth (350°)6.9 mphClear
4:15 PM62.6 °F53.6 °F72 %29.94 in10.0 miNNW (340°)5.8 mphClear
4:35 PM62.6 °F55.4 °F77 %29.94 in10.0 miNNW (330°)5.8 mphClear
4:55 PM62.6 °F55.4 °F77 %29.94 in10.0 miCalmClear
5:15 PM62.6 °F53.6 °F72 %29.94 in10.0 miCalmClear
5:35 PM62.6 °F53.6 °F72 %29.93 in10.0 miNorth (350°)5.8 mphClear
5:55 PM62.6 °F55.4 °F77 %29.93 in9.0 miCalmClear
6:15 PM62.6 °F53.6 °F72 %29.93 in10.0 miCalmClear
6:35 PM64.4 °F53.6 °F68 %29.93 in10.0 miCalmClear
6:55 PM64.4 °F53.6 °F68 %29.93 in9.0 miCalmClear
7:15 PM64.4 °F51.8 °F64 %29.93 in10.0 miCalmClear
7:35 PM64.4 °F51.8 °F64 %29.93 in10.0 miCalmClear
7:55 PM64.4 °F51.8 °F64 %29.93 in10.0 miCalmClear
8:15 PM64.4 °F51.8 °F64 %29.93 in8.0 miCalmClear
8:35 PM62.6 °F53.6 °F72 %29.94 in10.0 miCalmClear
8:55 PM62.6 °F53.6 °F72 %29.94 in9.0 miCalmClear
9:15 PM60.8 °F53.6 °F77 %29.94 in10.0 miCalmClear
9:35 PM60.8 °F55.4 °F82 %29.95 in10.0 miCalmClear
9:55 PM59.0 °F53.6 °F82 %29.95 in8.0 miCalmClear
10:15 PM59.0 °F53.6 °F82 %29.96 in10.0 miCalmClear
10:35 PM59.0 °F53.6 °F82 %29.97 in10.0 miCalmClear
10:55 PM57.2 °F53.6 °F88 %29.96 in10.0 miNorthClear
11:15 PM57.2 °F53.6 °F88 %29.97 in10.0 miNorthClear
11:35 PM57.2 °F53.6 °F88 %29.96 in10.0 miCalmClear
11:55 PM57.2 °F53.6 °F88 %29.96 in10.0 miNorthClear
Hourly data recorded from CZBB, located miles away from Vancouver, British Columbia







STORIES FROM OUR PARTNERS